• In Belarus
  • List of Countries
  • For 7 days
  • Water Temperature
  • Satellite Maps
  • Weather Map
  • Weather Widgets
  • user-avatar
    Login

    Hourly Weather Studzieniec

    Today, 16 October, Tuesday

    Time Temperature Precipitation Wind Pressure Humidity
    00:00 +12°C° 0 mm 2 mps 745 mmHg 55%
    01:00 +12°C° 0 mm 2 mps 745 mmHg 55%
    02:00 +12°C° 0 mm 2 mps 745 mmHg 55%
    03:00 +12°C° 0 mm 1 mps 745 mmHg 55%
    04:00 +12°C° 0 mm 1 mps 745 mmHg 56%
    05:00 +12°C° 0 mm 1 mps 745 mmHg 56%
    06:00 +12°C° 0 mm 1 mps 745 mmHg 56%
    07:00 +12°C° 0 mm 1 mps 746 mmHg 54%
    08:00 +14°C° 0 mm 1 mps 746 mmHg 49%
    09:00 +16°C° 0 mm 1 mps 746 mmHg 44%
    10:00 +19°C° 0 mm 1 mps 746 mmHg 39%
    11:00 +21°C° 0 mm 1 mps 746 mmHg 36%
    12:00 +22°C° 0 mm 1 mps 746 mmHg 34%
    13:00 +23°C° 0 mm 1 mps 746 mmHg 31%
    14:00 +22°C° 0 mm 1 mps 746 mmHg 34%
    15:00 +21°C° 0 mm 1 mps 746 mmHg 37%
    16:00 +19°C° 0 mm 2 mps 745 mmHg 40%
    17:00 +18°C° 0 mm 2 mps 746 mmHg 42%
    18:00 +17°C° 0 mm 2 mps 746 mmHg 45%
    19:00 +15°C° 0 mm 2 mps 746 mmHg 47%
    20:00 +15°C° 0 mm 2 mps 746 mmHg 48%
    21:00 +15°C° 0 mm 1 mps 746 mmHg 49%
    22:00 +14°C° 0 mm 1 mps 746 mmHg 50%
    23:00 +14°C° 0 mm 1 mps 746 mmHg 52%

    Tomorrow, 17 October, Wednesday

    Time Temperature Precipitation Wind Pressure Humidity
    00:00 +14°C° 0 mm 1 mps 746 mmHg 53%
    01:00 +13°C° 0 mm 1 mps 746 mmHg 54%
    02:00 +13°C° 0 mm 1 mps 746 mmHg 54%
    03:00 +13°C° 0 mm 1 mps 746 mmHg 54%
    04:00 +13°C° 0 mm 1 mps 746 mmHg 55%
    05:00 +13°C° 0 mm 1 mps 746 mmHg 55%
    06:00 +13°C° 0 mm 1 mps 746 mmHg 56%
    07:00 +13°C° 0 mm 1 mps 746 mmHg 57%
    08:00 +15°C° 0 mm 1 mps 746 mmHg 51%
    09:00 +18°C° 0 mm 1 mps 746 mmHg 46%
    10:00 +20°C° 0 mm 1 mps 746 mmHg 41%
    11:00 +21°C° 0 mm 1 mps 746 mmHg 38%
    12:00 +22°C° 0 mm 1 mps 745 mmHg 36%
    13:00 +23°C° 0 mm 1 mps 745 mmHg 33%
    14:00 +22°C° 0 mm 1 mps 745 mmHg 37%
    15:00 +21°C° 0 mm 1 mps 745 mmHg 40%
    16:00 +20°C° 0 mm 1 mps 745 mmHg 43%
    17:00 +19°C° 0 mm 1 mps 745 mmHg 45%
    18:00 +17°C° 0 mm 2 mps 745 mmHg 47%
    19:00 +16°C° 0 mm 2 mps 745 mmHg 49%
    20:00 +16°C° 0 mm 2 mps 745 mmHg 50%
    21:00 +15°C° 0 mm 1 mps 745 mmHg 50%
    22:00 +15°C° 0 mm 1 mps 745 mmHg 51%
    23:00 +15°C° 0 mm 1 mps 745 mmHg 52%

    Day after tomorrow, 18 October, Thursday

    Time Temperature Precipitation Wind Pressure Humidity
    00:00 +15°C° 0 mm 1 mps 744 mmHg 53%
    01:00 +15°C° 0 mm 1 mps 744 mmHg 54%
    02:00 +14°C° 0 mm 1 mps 744 mmHg 56%
    03:00 +14°C° 0 mm 1 mps 744 mmHg 58%
    04:00 +14°C° 0 mm 1 mps 744 mmHg 61%
    05:00 +14°C° 0 mm 1 mps 744 mmHg 62%
    06:00 +14°C° 0 mm 1 mps 744 mmHg 64%
    07:00 +14°C° 0 mm 1 mps 744 mmHg 65%
    08:00 +15°C° 0 mm 1 mps 744 mmHg 62%
    09:00 +16°C° 0 mm 1 mps 744 mmHg 58%
    10:00 +18°C° 0 mm 1 mps 744 mmHg 55%
    11:00 +19°C° 0 mm 1 mps 744 mmHg 53%
    12:00 +19°C° 0 mm 2 mps 744 mmHg 50%
    13:00 +19°C° 0 mm 2 mps 743 mmHg 48%
    14:00 +20°C° 0 mm 1 mps 743 mmHg 51%
    15:00 +19°C° 0 mm 1 mps 743 mmHg 54%
    16:00 +19°C° 0 mm 1 mps 743 mmHg 57%
    17:00 +18°C° 0 mm 1 mps 743 mmHg 60%
    18:00 +16°C° 0 mm 1 mps 743 mmHg 63%
    19:00 +14°C° 0 mm 0 mps 744 mmHg 66%
    20:00 +14°C° 0 mm 1 mps 744 mmHg 68%
    21:00 +14°C° 0 mm 1 mps 744 mmHg 71%
    22:00 +14°C° 0 mm 1 mps 744 mmHg 73%
    23:00 +13°C° 0 mm 1 mps 744 mmHg 75%

    19 October, Friday

    Time Temperature Precipitation Wind Pressure Humidity
    00:00 +13°C° 0 mm 1 mps 744 mmHg 77%
    01:00 +12°C° 0 mm 1 mps 744 mmHg 79%
    02:00 +12°C° 0 mm 1 mps 744 mmHg 81%
    03:00 +12°C° 0 mm 1 mps 744 mmHg 84%
    04:00 +11°C° 0 mm 1 mps 744 mmHg 86%
    05:00 +11°C° 0 mm 1 mps 744 mmHg 87%
    06:00 +11°C° 0 mm 1 mps 745 mmHg 87%
    07:00 +10°C° 0 mm 2 mps 745 mmHg 88%
    08:00 +13°C° 0 mm 2 mps 745 mmHg 82%
    09:00 +14°C° 0 mm 2 mps 745 mmHg 76%
    10:00 +15°C° 0 mm 2 mps 745 mmHg 70%
    11:00 +16°C° 0 mm 3 mps 745 mmHg 67%
    12:00 +17°C° 0 mm 3 mps 745 mmHg 64%
    13:00 +18°C° 0 mm 3 mps 745 mmHg 61%
    14:00 +17°C° 0 mm 3 mps 745 mmHg 63%
    15:00 +17°C° 0 mm 3 mps 746 mmHg 66%
    16:00 +16°C° 0 mm 3 mps 746 mmHg 69%
    17:00 +15°C° 0 mm 2 mps 746 mmHg 73%
    18:00 +14°C° 0 mm 2 mps 746 mmHg 78%
    19:00 +13°C° 0 mm 2 mps 746 mmHg 83%
    20:00 +13°C° 0 mm 2 mps 747 mmHg 83%
    21:00 +13°C° 0 mm 2 mps 747 mmHg 84%
    22:00 +13°C° 0 mm 2 mps 747 mmHg 85%
    23:00 +13°C° 0 mm 2 mps 747 mmHg 85%

    20 October, Saturday

    Time Temperature Precipitation Wind Pressure Humidity
    00:00 +13°C° 0 mm 1 mps 747 mmHg 84%
    01:00 +12°C° 0 mm 1 mps 748 mmHg 84%
    02:00 +12°C° 0 mm 1 mps 748 mmHg 85%
    03:00 +12°C° 0 mm 1 mps 748 mmHg 85%
    04:00 +12°C° 0 mm 1 mps 748 mmHg 85%
    05:00 +12°C° 0 mm 1 mps 748 mmHg 84%
    06:00 +12°C° 0 mm 2 mps 748 mmHg 83%
    07:00 +10°C° 0 mm 2 mps 748 mmHg 82%
    08:00 +12°C° 0 mm 2 mps 749 mmHg 75%
    09:00 +13°C° 0 mm 2 mps 749 mmHg 68%
    10:00 +14°C° 0 mm 2 mps 749 mmHg 61%
    11:00 +13°C° 0 mm 3 mps 749 mmHg 57%
    12:00 +14°C° 0 mm 3 mps 749 mmHg 53%
    13:00 +14°C° 0 mm 3 mps 749 mmHg 50%
    14:00 +14°C° 0 mm 3 mps 749 mmHg 51%
    15:00 +13°C° 0 mm 3 mps 749 mmHg 53%
    16:00 +14°C° 0 mm 2 mps 749 mmHg 55%
    17:00 +13°C° 0 mm 2 mps 749 mmHg 59%
    18:00 +12°C° 0 mm 2 mps 749 mmHg 62%
    19:00 +10°C° 0 mm 2 mps 750 mmHg 66%
    20:00 +10°C° 0 mm 2 mps 750 mmHg 66%
    21:00 +10°C° 0 mm 2 mps 750 mmHg 65%
    22:00 +10°C° 0 mm 2 mps 750 mmHg 65%
    23:00 +9°C° 0 mm 2 mps 750 mmHg 66%

    21 October, Sunday

    Time Temperature Precipitation Wind Pressure Humidity
    00:00 +9°C° 0 mm 2 mps 750 mmHg 67%
    01:00 +9°C° 0 mm 2 mps 750 mmHg 67%
    02:00 +9°C° 0 mm 2 mps 750 mmHg 66%
    03:00 +9°C° 0 mm 2 mps 750 mmHg 64%
    04:00 +9°C° 0 mm 3 mps 750 mmHg 63%
    05:00 +8°C° 0 mm 2 mps 750 mmHg 63%
    06:00 +8°C° 0 mm 2 mps 750 mmHg 63%
    07:00 +8°C° 0 mm 2 mps 750 mmHg 64%
    08:00 +9°C° 0 mm 2 mps 750 mmHg 63%
    09:00 +9°C° 0 mm 3 mps 750 mmHg 62%
    10:00 +10°C° 0 mm 3 mps 750 mmHg 61%
    11:00 +12°C° 0 mm 2 mps 750 mmHg 59%
    12:00 +12°C° 0 mm 2 mps 749 mmHg 57%
    13:00 +13°C° 0 mm 2 mps 749 mmHg 56%
    14:00 +13°C° 0 mm 2 mps 749 mmHg 58%
    15:00 +12°C° 0 mm 2 mps 749 mmHg 60%
    16:00 +12°C° 0 mm 1 mps 749 mmHg 62%
    17:00 +11°C° 0 mm 1 mps 749 mmHg 66%
    18:00 +10°C° 0 mm 1 mps 749 mmHg 70%
    19:00 +9°C° 0 mm 1 mps 749 mmHg 74%
    20:00 +9°C° 0 mm 1 mps 749 mmHg 75%
    21:00 +8°C° 0 mm 1 mps 749 mmHg 77%
    22:00 +7°C° 0 mm 0 mps 749 mmHg 79%
    23:00 +8°C° 0 mm 1 mps 749 mmHg 80%
    Show more